KJ6WEG Weather Reports


Display with metric or nautical units.
time (UTC)temp
F
wind
direction
speed
MPH
gust
MPH
rain 1hr
in
rain 24hr
in
rain mn
in
humidity
%
barometer
mb
20260505171053 56 0 1.0 5.0 0.00 0.20 0.11 92 1015.9
20260505170554 56 0 1.0 5.0 0.00 0.20 0.11 93 1016.0
20260505170100 56 266 1.0 5.0 0.00 0.20 0.11 93 1016.0
20260505165554 56 232 0.0 7.0 0.00 0.20 0.11 94 1016.0
20260505165053 56 284 1.0 7.0 0.00 0.20 0.11 94 1015.9
20260505164611 55 317 1.0 5.0 0.00 0.20 0.11 94 1015.9
20260505164052 55 0 1.0 6.0 0.00 0.20 0.11 94 1015.9
20260505163551 55 310 0.0 6.0 0.00 0.20 0.11 94 1016.0
20260505163057 55 292 1.0 4.0 0.00 0.20 0.11 95 1015.9
20260505162553 55 0 0.0 3.0 0.00 0.20 0.11 95 1016.0
20260505162052 55 0 0.0 3.0 0.00 0.20 0.11 95 1015.9
20260505161558 55 0 0.0 3.0 0.00 0.20 0.11 95 1015.9
20260505161052 55 0 0.0 3.0 0.00 0.20 0.11 95 1015.9
20260505160552 55 232 0.0 3.0 0.00 0.20 0.11 95 1015.7
20260505160107 55 213 0.0 3.0 0.00 0.20 0.11 95 1015.8
20260505153053 54 248 1.0 4.0 0.00 0.20 0.11 95 1015.5
20260505152555 54 0 0.0 4.0 0.00 0.20 0.11 95 1015.5
20260505152052 54 222 0.0 6.0 0.00 0.20 0.11 95 1015.5
20260505151606 54 298 1.0 7.0 0.00 0.20 0.11 95 1015.4
20260505151055 54 252 1.0 7.0 0.00 0.20 0.11 95 1015.5
20260505150552 54 300 1.0 8.0 0.00 0.20 0.11 95 1015.5
20260505140551 53 0 0.0 2.0 0.00 0.20 0.11 95 1015.1
20260505124603 53 0 0.0 5.0 0.00 0.20 0.11 96 1014.7
20260505124054 53 215 0.0 5.0 0.00 0.20 0.11 96 1014.9
20260505123552 53 222 1.0 5.0 0.00 0.20 0.11 96 1014.9
20260505123053 53 0 0.0 5.0 0.00 0.20 0.11 96 1014.9
20260505122559 52 0 1.0 5.0 0.00 0.20 0.11 96 1014.9
20260505122055 52 229 0.0 4.0 0.00 0.20 0.11 96 1014.9
20260505121553 52 0 0.0 4.0 0.00 0.20 0.11 96 1014.9
20260505121055 52 221 0.0 4.0 0.00 0.20 0.11 95 1015.0
20260505120555 52 0 0.0 4.0 0.00 0.20 0.11 96 1014.9
20260505120058 52 219 0.0 3.0 0.00 0.20 0.11 95 1015.0
20260505115557 52 0 0.0 3.0 0.00 0.20 0.11 95 1014.9
20260505115054 52 0 0.0 2.0 0.00 0.20 0.11 95 1014.9
20260505114554 52 0 0.0 2.0 0.00 0.20 0.11 95 1014.7
20260505114055 52 0 0.0 2.0 0.00 0.20 0.11 95 1014.7
20260505113554 53 0 0.0 3.0 0.00 0.20 0.11 96 1014.7
20260505113056 52 156 1.0 3.0 0.00 0.20 0.11 96 1014.9
20260505112556 53 0 0.0 2.0 0.00 0.20 0.11 96 1014.9
20260505112056 52 0 0.0 2.0 0.00 0.20 0.11 95 1014.9
20260505111554 52 0 0.0 3.0 0.00 0.20 0.11 95 1015.0
20260505111056 52 0 1.0 3.0 0.00 0.20 0.11 96 1015.0
20260505110554 52 111 0.0 2.0 0.00 0.20 0.11 96 1015.2
20260505110107 52 103 1.0 4.0 0.00 0.20 0.11 96 1015.2
20260505102054 53 90 1.0 2.0 0.01 0.20 0.11 95 1015.1
20260505101555 53 0 0.0 2.0 0.01 0.20 0.11 95 1015.0
20260505101054 53 0 0.0 3.0 0.01 0.20 0.11 95 1015.0
20260505100554 53 117 1.0 3.0 0.01 0.20 0.11 95 1014.9
20260505100055 52 123 2.0 3.0 0.01 0.20 0.11 95 1015.0
20260505095554 52 112 1.0 3.0 0.02 0.20 0.11 95 1015.1
20260505095056 52 107 0.0 3.0 0.02 0.20 0.11 95 1015.1
20260505094554 52 132 1.0 3.0 0.02 0.20 0.11 95 1015.2
20260505094055 52 0 1.0 3.0 0.01 0.19 0.10 95 1015.2
20260505093555 52 144 0.0 3.0 0.01 0.19 0.10 95 1015.3
20260505093053 52 145 0.0 2.0 0.01 0.19 0.10 95 1015.4
20260505092557 52 146 1.0 3.0 0.01 0.19 0.10 95 1015.5
20260505092056 52 0 1.0 4.0 0.01 0.19 0.10 95 1015.4
20260505091608 52 158 1.0 4.0 0.02 0.19 0.10 95 1015.4
20260505091055 52 165 1.0 4.0 0.02 0.19 0.10 95 1015.4
20260505090555 52 161 1.0 2.0 0.03 0.19 0.10 95 1015.4
20260505090109 52 185 0.0 2.0 0.04 0.19 0.10 94 1015.6
20260505085556 52 0 0.0 2.0 0.03 0.18 0.09 94 1015.6
20260505085057 52 0 0.0 0.0 0.03 0.18 0.09 94 1015.6
20260505084558 52 0 0.0 0.0 0.04 0.18 0.09 94 1015.7
20260505084055 52 0 0.0 0.0 0.05 0.18 0.09 94 1015.6
20260505083555 52 0 0.0 0.0 0.06 0.18 0.09 94 1015.7
20260505083100 52 0 0.0 0.0 0.07 0.18 0.09 94 1015.6
20260505082556 52 0 0.0 2.0 0.07 0.18 0.09 94 1015.7
20260505082056 52 0 0.0 2.0 0.08 0.18 0.09 94 1015.6
20260505081557 52 144 0.0 2.0 0.07 0.17 0.08 94 1015.6
20260505081055 52 0 0.0 0.0 0.07 0.17 0.08 94 1015.6
20260505080553 52 0 0.0 0.0 0.07 0.16 0.07 94 1015.7
20260505080107 52 0 0.0 0.0 0.06 0.15 0.06 94 1015.7
20260505075556 52 0 0.0 0.0 0.06 0.15 0.06 94 1015.8
20260505075055 52 0 0.0 0.0 0.06 0.15 0.06 94 1015.9
20260505074554 52 0 0.0 0.0 0.05 0.14 0.05 94 1015.9
20260505074056 52 0 0.0 0.0 0.05 0.13 0.04 93 1015.8
20260505073556 52 0 0.0 0.0 0.04 0.12 0.03 93 1015.8
20260505073100 52 0 0.0 0.0 0.03 0.11 0.02 93 1015.7
20260505072556 52 0 0.0 0.0 0.03 0.11 0.02 93 1015.8
20260505072053 52 0 0.0 0.0 0.02 0.10 0.01 93 1015.9
20260505071556 52 0 0.0 0.0 0.02 0.10 0.01 93 1016.1
20260505071056 52 0 0.0 0.0 0.02 0.10 0.01 93 1016.1
20260505070556 52 0 0.0 0.0 0.02 0.09 0.00 93 1016.1
20260505070057 52 0 0.0 0.0 0.02 0.09 0.00 93 1016.2
20260505065556 52 0 0.0 0.0 0.02 0.09 0.09 93 1016.0
20260505065055 52 0 0.0 0.0 0.03 0.09 0.09 92 1016.0
20260505064600 52 0 0.0 0.0 0.03 0.09 0.09 92 1015.9
20260505064055 52 0 0.0 1.0 0.03 0.08 0.08 92 1015.8
20260505063555 52 0 0.0 2.0 0.03 0.08 0.08 92 1015.7
20260505063114 52 0 0.0 3.0 0.04 0.08 0.08 92 1015.7
20260505062556 52 32 1.0 3.0 0.04 0.08 0.08 92 1015.6
20260505062055 52 0 1.0 3.0 0.04 0.08 0.08 91 1015.6
20260505061558 52 305 0.0 3.0 0.04 0.08 0.08 91 1015.6
20260505061124 52 323 1.0 5.0 0.05 0.08 0.08 91 1015.6
20260505060555 52 300 2.0 5.0 0.04 0.07 0.07 91 1015.7
20260505060059 52 312 2.0 5.0 0.04 0.07 0.07 91 1015.7
20260505055553 52 349 1.0 5.0 0.05 0.07 0.07 91 1015.8
20260505055053 53 355 2.0 6.0 0.04 0.06 0.06 91 1015.9
20260505054609 53 315 2.0 6.0 0.04 0.05 0.05 91 1015.9
20260505054053 53 0 2.0 4.0 0.04 0.05 0.05 91 1015.9
20260505053551 53 299 2.0 4.0 0.05 0.05 0.05 91 1015.8
20260505053100 53 303 0.0 2.0 0.04 0.04 0.04 91 1015.8
20260505052551 53 0 0.0 0.0 0.04 0.04 0.04 91 1015.7
20260505052053 53 0 0.0 2.0 0.04 0.04 0.04 90 1015.7
20260505051557 53 0 0.0 3.0 0.04 0.04 0.04 90 1015.6
20260505051052 53 299 0.0 4.0 0.03 0.03 0.03 90 1015.8
20260505050553 53 299 2.0 4.0 0.03 0.03 0.03 90 1015.9
20260505041558 55 349 2.0 6.0 0.00 0.00 0.00 86 1016.2
20260505041054 55 340 3.0 6.0 0.00 0.00 0.00 86 1016.1
20260505040554 55 314 2.0 7.0 0.00 0.00 0.00 86 1016.1
20260505040058 55 319 3.0 7.0 0.00 0.00 0.00 85 1015.9
20260505035552 55 294 3.0 8.0 0.00 0.00 0.00 85 1015.8
20260505035057 56 302 2.0 8.0 0.00 0.00 0.00 86 1015.7
20260505034552 56 306 2.0 6.0 0.00 0.00 0.00 85 1015.6
20260505034056 56 287 1.0 5.0 0.00 0.00 0.00 86 1015.5
20260505033555 56 0 1.0 5.0 0.00 0.00 0.00 86 1015.3
20260505033054 56 0 1.0 5.0 0.00 0.00 0.00 86 1015.1
20260505032553 56 311 3.0 5.0 0.00 0.00 0.00 85 1015.2
20260505032051 56 306 1.0 5.0 0.00 0.00 0.00 85 1015.1
20260505031605 56 335 1.0 6.0 0.00 0.00 0.00 85 1015.1
20260505031052 56 333 2.0 6.0 0.00 0.00 0.00 85 1015.0
20260505030552 56 320 1.0 4.0 0.00 0.00 0.00 84 1015.0
20260505030053 56 325 1.0 6.0 0.00 0.00 0.00 83 1015.0
20260505025551 56 300 2.0 6.0 0.00 0.00 0.00 83 1015.1
20260505025052 56 302 3.0 6.0 0.00 0.00 0.00 82 1015.0
20260505024603 56 304 3.0 8.0 0.00 0.00 0.00 82 1015.0
20260505024051 57 309 3.0 8.0 0.00 0.00 0.00 82 1015.1
20260505023554 57 302 4.0 8.0 0.00 0.00 0.00 82 1015.1
20260505023054 57 309 2.0 11.0 0.00 0.00 0.00 82 1015.1
20260505022554 57 319 3.0 11.0 0.00 0.00 0.00 81 1015.2
20260505022051 57 275 3.0 10.0 0.00 0.00 0.00 81 1015.2
20260505021555 57 336 4.0 9.0 0.00 0.00 0.00 81 1015.1
20260505021052 57 332 3.0 12.0 0.00 0.00 0.00 80 1015.0
20260505020552 57 300 2.0 12.0 0.00 0.00 0.00 79 1015.0
20260505020053 57 302 6.0 12.0 0.00 0.00 0.00 78 1015.0
20260505015552 57 355 4.0 10.0 0.00 0.00 0.00 78 1015.1
20260505015053 57 297 2.0 8.0 0.00 0.00 0.00 82 1015.2
20260505014606 58 284 1.0 9.0 0.00 0.00 0.00 85 1015.2
20260505014051 58 263 0.0 9.0 0.00 0.00 0.00 85 1015.3
20260505013554 58 277 1.0 9.0 0.00 0.00 0.00 85 1015.5
20260505013054 58 217 1.0 7.0 0.00 0.00 0.00 85 1015.5
20260505012555 58 217 0.0 7.0 0.00 0.00 0.00 85 1015.5
20260505012052 58 273 1.0 7.0 0.00 0.00 0.00 85 1015.4
20260505011602 58 252 2.0 8.0 0.00 0.00 0.00 85 1015.4
20260505011051 58 0 1.0 8.0 0.00 0.00 0.00 85 1015.4
20260505010554 58 254 2.0 9.0 0.00 0.00 0.00 85 1015.5
20260505010052 57 0 1.0 9.0 0.00 0.00 0.00 86 1015.5
20260505005552 57 234 1.0 10.0 0.00 0.00 0.00 85 1015.5
20260505005055 57 153 3.0 10.0 0.00 0.00 0.00 85 1015.5
20260505004555 57 270 1.0 10.0 0.00 0.00 0.00 85 1015.5
20260505004051 57 271 2.0 7.0 0.00 0.00 0.00 85 1015.6
20260505003552 58 267 2.0 10.0 0.00 0.00 0.00 85 1015.4
20260505003054 57 250 3.0 10.0 0.00 0.00 0.00 85 1015.5
20260505002552 58 208 3.0 9.0 0.00 0.00 0.00 85 1015.5
20260505002052 58 229 2.0 9.0 0.00 0.00 0.00 85 1015.6
20260505001554 58 284 3.0 10.0 0.00 0.00 0.00 84 1015.6
20260505001052 58 229 2.0 10.0 0.00 0.00 0.00 84 1015.5
20260505000552 58 319 3.0 10.0 0.00 0.00 0.00 84 1015.6
20260505000109 58 238 2.0 10.0 0.00 0.00 0.00 84 1015.6
20260504235551 58 247 2.0 10.0 0.00 0.00 0.00 84 1015.5
20260504235052 58 184 2.0 10.0 0.00 0.00 0.00 83 1015.5
20260504234553 58 214 2.0 10.0 0.00 0.00 0.00 84 1015.5
20260504234054 58 213 3.0 10.0 0.00 0.00 0.00 83 1015.5
20260504233554 58 284 2.0 11.0 0.00 0.00 0.00 84 1015.4
20260504233107 58 259 3.0 11.0 0.00 0.00 0.00 83 1015.4
20260504232555 58 209 3.0 9.0 0.00 0.00 0.00 83 1015.4
20260504232054 58 236 2.0 9.0 0.00 0.00 0.00 84 1015.4
20260504231553 58 257 2.0 10.0 0.00 0.00 0.00 84 1015.4
20260504231054 59 242 3.0 14.0 0.00 0.00 0.00 84 1015.5
20260504230551 59 255 4.0 14.0 0.00 0.00 0.00 83 1015.4
20260504230056 59 207 3.0 10.0 0.00 0.00 0.00 83 1015.4
20260504225551 59 253 2.0 12.0 0.00 0.00 0.00 84 1015.4
20260504225050 59 201 3.0 12.0 0.00 0.00 0.00 83 1015.4
20260504224604 59 0 3.0 12.0 0.00 0.00 0.00 84 1015.5
20260504224051 59 274 3.0 10.0 0.00 0.00 0.00 83 1015.5
20260504223555 59 0 3.0 10.0 0.00 0.00 0.00 83 1015.6
20260504223124 59 250 2.0 10.0 0.00 0.00 0.00 83 1015.6
20260504222555 59 344 3.0 9.0 0.00 0.00 0.00 82 1015.6
20260504222055 59 223 4.0 11.0 0.00 0.00 0.00 81 1015.7
20260504221556 60 256 3.0 11.0 0.00 0.00 0.00 80 1015.8
20260504221058 60 315 1.0 12.0 0.00 0.00 0.00 80 1015.8
20260504220553 60 0 2.0 12.0 0.00 0.00 0.00 81 1015.8
20260504220058 60 246 2.0 12.0 0.00 0.00 0.00 80 1015.8
20260504215554 60 0 3.0 10.0 0.00 0.00 0.00 80 1015.9
20260504215054 60 233 3.0 10.0 0.00 0.00 0.00 80 1015.8
20260504214605 61 229 3.0 8.0 0.00 0.00 0.00 79 1015.7
20260504214054 61 171 1.0 11.0 0.00 0.00 0.00 80 1015.7
20260504213552 60 0 0.0 11.0 0.00 0.00 0.00 81 1015.8
20260504213104 60 300 4.0 11.0 0.00 0.00 0.00 80 1015.9
20260504212553 60 219 3.0 10.0 0.00 0.00 0.00 80 1015.7
20260504212050 60 250 3.0 9.0 0.00 0.00 0.00 80 1015.8
20260504211601 60 218 2.0 9.0 0.00 0.00 0.00 80 1015.8
20260504211051 60 219 3.0 10.0 0.00 0.00 0.00 80 1015.8
20260504210555 60 261 3.0 11.0 0.00 0.00 0.00 78 1015.8
20260504210057 61 267 3.0 11.0 0.00 0.00 0.00 78 1015.8
20260504205555 61 0 2.0 11.0 0.00 0.00 0.00 78 1015.8
20260504205056 61 221 2.0 11.0 0.00 0.00 0.00 78 1015.7
20260504204556 61 250 1.0 11.0 0.00 0.00 0.00 79 1015.9
20260504204108 61 237 2.0 11.0 0.00 0.00 0.00 79 1015.9
20260504203556 61 234 3.0 9.0 0.00 0.00 0.00 76 1015.9
20260504203109 61 259 3.0 9.0 0.00 0.00 0.00 76 1015.9
20260504202556 61 0 2.0 9.0 0.00 0.00 0.00 76 1015.9
20260504202056 61 251 2.0 9.0 0.00 0.00 0.00 75 1015.8
20260504201559 61 0 2.0 9.0 0.00 0.00 0.00 75 1015.7
20260504201055 61 286 2.0 9.0 0.00 0.00 0.00 73 1015.7
20260504200555 61 244 1.0 9.0 0.00 0.00 0.00 75 1015.7
20260504200118 61 246 3.0 9.0 0.00 0.00 0.00 73 1015.8
20260504195554 61 0 2.0 11.0 0.00 0.00 0.00 73 1015.8
20260504195056 62 256 1.0 12.0 0.00 0.00 0.00 73 1015.8
20260504194601 62 284 3.0 12.0 0.00 0.00 0.00 74 1015.9
20260504194055 63 233 2.0 11.0 0.00 0.00 0.00 73 1015.9
20260504193554 62 207 2.0 8.0 0.00 0.00 0.00 73 1015.9
20260504193058 62 319 2.0 8.0 0.00 0.00 0.00 74 1015.9
20260504192555 62 245 2.0 8.0 0.00 0.00 0.00 74 1015.9
20260504192055 62 295 2.0 7.0 0.00 0.00 0.00 74 1015.8
20260504191559 62 261 1.0 7.0 0.00 0.00 0.00 74 1015.8
20260504191056 62 0 1.0 7.0 0.00 0.00 0.00 76 1015.8
20260504190555 61 238 2.0 8.0 0.00 0.00 0.00 78 1016.0
20260504190057 61 0 1.0 8.0 0.00 0.00 0.00 78 1016.0
20260504185555 61 261 2.0 8.0 0.00 0.00 0.00 77 1016.0
20260504185057 62 200 1.0 7.0 0.00 0.00 0.00 76 1016.0
20260504184558 62 219 2.0 8.0 0.00 0.00 0.00 75 1016.0
20260504184057 63 254 1.0 8.0 0.00 0.00 0.00 75 1016.0
20260504183556 63 277 2.0 8.0 0.00 0.00 0.00 75 1016.0
20260504183055 62 244 1.0 7.0 0.00 0.00 0.00 72 1016.0
20260504182555 62 255 1.0 8.0 0.00 0.00 0.00 73 1016.0
20260504182055 62 279 2.0 10.0 0.00 0.00 0.00 73 1015.9
20260504181557 62 272 3.0 10.0 0.00 0.00 0.00 73 1015.9
20260504181056 62 214 2.0 7.0 0.00 0.00 0.00 74 1015.9
20260504180556 62 261 1.0 8.0 0.00 0.00 0.00 73 1015.9
20260504180058 62 281 2.0 9.0 0.00 0.00 0.00 75 1015.8
20260504175555 62 296 3.0 9.0 0.00 0.00 0.00 74 1015.9
20260504175055 62 242 2.0 8.0 0.00 0.00 0.00 72 1015.9
20260504174614 62 0 1.0 7.0 0.00 0.00 0.00 72 1015.9
20260504174056 62 269 0.0 7.0 0.00 0.00 0.00 75 1015.7
20260504173556 61 278 1.0 6.0 0.00 0.00 0.00 76 1015.6
20260504173101 61 292 1.0 8.0 0.00 0.00 0.00 77 1015.7
20260504172555 61 220 1.0 8.0 0.00 0.00 0.00 77 1015.7
20260504172052 61 258 1.0 7.0 0.00 0.00 0.00 78 1015.7
20260504171554 60 250 2.0 7.0 0.00 0.00 0.00 78 1015.6